Theta_e
330 329 331 331 331 331 331 331 331 331 330 330 329 332 335 337 337 338 338 335 333 331 330 331 333 332 332 331 330 330 330 330 330 330 330 331 331 331 332 332 331 330 330 330 330 330 330 331 331 331 331 331 332 333 332 332 330 329 330 329 329 329 330 329 329 329 328 329 329 328 327 327 327 327 326 324 323 323 325 326 327 327 327 328 329
330 330 330 331 332 331 331 331 331 330 330 330 330 333 336 336 336 337 336 332 330 329 329 330 331 330 330 329 328 329 329 329 328 329 329 329 330 330 330 330 330 329 329 329 329 329 328 328 329 329 330 330 331 331 331 331 329 329 330 329 328 329 329 329 330 329 329 329 328 328 329 327 326 327 327 326 325 324 324 325 325 326 327 327 327
333 332 330 330 331 331 332 331 331 331 331 331 332 334 334 333 334 334 332 330 329 328 328 328 328 329 329 328 327 327 328 328 328 327 327 327 326 326 326 326 327 327 327 327 327 328 327 326 327 329 330 330 330 330 330 330 330 329 329 329 328 329 329 329 330 329 329 328 327 328 330 330 329 327 328 328 326 326 325 324 325 325 326 327 327
333 333 331 330 329 331 332 332 331 331 330 331 331 332 331 331 331 331 329 329 328 328 327 328 328 329 329 328 327 326 327 327 326 325 325 325 324 323 322 322 324 325 325 325 326 328 326 325 326 328 329 329 330 330 330 330 330 329 328 329 329 329 328 329 329 329 328 328 327 326 324 329 332 327 326 329 327 327 326 325 325 325 326 326 327
331 333 333 331 328 329 332 332 331 331 330 330 330 330 330 329 329 328 328 328 327 327 327 328 329 329 329 328 326 324 325 324 323 323 323 323 322 322 321 320 321 323 324 324 325 326 325 324 326 327 328 329 329 330 330 329 330 328 327 328 329 330 329 329 329 329 328 327 327 326 324 329 332 326 325 328 327 327 327 326 327 327 326 325 324
330 330 331 330 327 329 332 332 332 331 330 330 329 329 328 328 328 327 327 326 326 326 326 326 327 327 327 326 323 321 321 322 322 322 322 322 321 321 320 320 320 322 323 323 324 324 323 322 325 326 327 328 327 328 328 328 329 328 328 329 329 330 329 329 328 328 328 327 326 327 327 328 328 325 326 328 327 326 326 326 327 328 327 326 325
332 331 332 330 327 329 332 332 332 331 331 330 329 329 328 327 327 326 326 325 325 324 323 323 324 325 326 325 324 323 322 321 321 322 322 321 321 320 320 320 321 322 322 324 323 323 322 323 325 326 326 326 325 326 326 327 327 328 328 329 329 329 329 328 327 327 328 327 327 327 327 326 326 326 328 330 331 328 325 324 325 326 327 326 327
333 333 334 331 327 329 331 331 332 332 331 330 330 329 328 327 326 325 325 325 324 323 323 322 323 324 325 325 324 323 321 321 320 321 321 320 320 320 320 320 320 321 321 323 323 323 323 323 324 326 326 325 325 325 325 325 326 327 327 327 328 328 327 327 326 327 326 327 327 327 327 327 326 326 326 327 330 331 326 324 321 321 323 323 323
332 333 333 329 326 328 332 332 332 332 332 331 330 329 327 325 324 324 326 325 324 324 324 323 323 325 325 324 323 321 319 318 318 320 320 320 320 320 320 319 319 320 320 321 323 322 322 322 323 325 325 324 324 324 324 325 325 325 326 326 326 327 326 327 327 326 326 326 327 327 327 326 326 326 326 324 326 329 329 325 318 315 316 315 315
332 333 331 327 326 328 331 332 332 333 333 332 331 330 328 324 324 326 327 326 325 325 325 323 323 324 323 322 321 318 316 316 318 320 321 320 320 319 319 319 318 318 319 320 322 322 321 321 322 324 324 323 323 323 323 323 323 324 324 325 325 326 325 326 326 326 326 326 327 327 327 325 322 321 323 324 322 320 322 320 313 313 315 313 312
331 333 330 325 325 328 330 332 332 332 333 333 332 331 328 325 325 326 326 325 325 325 325 323 322 322 321 320 319 317 316 317 319 321 321 320 320 319 319 319 317 317 318 320 321 321 321 320 321 322 323 322 322 322 321 321 322 322 323 323 323 323 323 323 323 325 326 326 326 326 325 321 317 315 317 320 318 315 316 316 311 311 313 312 312
330 333 331 327 327 327 329 331 331 332 333 333 333 331 328 325 324 324 325 326 326 326 324 323 322 321 321 319 318 317 316 317 319 320 320 320 319 319 319 318 317 316 316 317 317 317 317 316 316 315 318 319 318 317 317 319 320 321 322 322 320 318 318 318 320 321 323 323 322 320 319 316 314 314 313 314 314 312 313 313 310 311 312 311 312
331 332 332 332 330 326 327 330 330 331 332 332 333 331 328 326 324 322 324 326 326 325 324 323 321 320 320 319 317 318 317 317 317 317 318 319 319 319 318 316 315 315 315 315 314 314 314 313 310 308 309 311 310 309 311 315 318 319 320 319 317 316 316 316 316 316 316 316 315 314 314 313 313 313 312 312 313 312 310 311 311 312 311 311 312
330 331 331 332 329 324 325 328 329 330 331 332 332 330 328 327 325 322 324 326 325 324 322 320 320 320 319 318 318 318 318 318 317 315 317 319 319 319 318 314 313 314 315 315 314 314 314 311 308 307 307 306 306 306 307 310 315 318 319 318 316 315 315 315 314 313 313 312 311 311 311 311 311 311 312 312 312 311 310 310 311 311 311 310 310
330 331 332 330 325 323 325 327 327 329 331 331 331 330 328 327 326 324 324 325 324 322 320 319 320 320 318 318 318 316 316 319 317 315 318 320 319 318 315 312 311 313 314 314 314 314 312 309 308 307 307 306 305 305 304 305 308 312 314 314 313 312 313 313 312 312 311 309 309 309 309 308 307 307 308 310 311 311 311 310 310 311 313 312 310
327 330 333 328 322 322 325 326 327 329 330 330 330 329 328 327 326 325 324 325 324 321 319 319 319 319 317 317 316 315 316 319 318 317 319 320 319 317 313 311 311 312 313 314 313 313 310 308 308 308 306 305 304 304 304 303 304 305 306 306 307 309 311 312 312 310 307 305 305 306 306 305 306 306 306 309 310 310 310 309 309 310 314 316 314
323 326 330 326 321 322 324 325 326 328 329 330 330 329 329 328 326 325 324 323 321 321 321 321 319 318 317 317 317 317 319 319 317 317 320 320 319 316 313 311 311 311 312 313 313 312 310 309 308 308 307 306 305 304 304 304 304 303 303 303 303 306 308 310 310 308 305 305 305 305 305 306 307 308 308 309 309 309 309 309 309 309 310 313 316
325 325 326 323 319 321 324 325 326 328 328 330 330 329 329 329 328 326 323 321 321 321 323 323 319 316 315 316 318 320 320 319 317 317 319 320 319 316 313 313 311 310 311 312 313 313 312 312 310 308 309 309 307 305 304 304 304 304 303 303 303 304 306 307 308 307 306 307 306 305 306 308 308 308 309 309 309 309 309 309 309 309 310 311 311
327 327 326 323 319 319 324 326 326 327 327 328 328 327 327 327 327 326 322 321 322 322 323 321 317 316 316 317 319 321 320 319 318 317 318 319 318 315 315 314 311 309 309 310 311 311 311 313 312 311 311 311 310 308 306 304 304 304 304 304 303 304 304 306 308 308 308 308 306 305 306 308 309 309 308 309 308 309 309 309 310 309 309 310 309
325 324 325 323 318 318 323 325 326 327 326 327 326 326 326 325 326 326 323 321 321 322 323 322 319 318 319 318 319 320 320 319 318 317 316 316 316 316 316 315 313 310 309 310 311 310 309 310 312 313 313 313 313 312 309 306 305 305 305 304 304 304 304 305 307 308 309 309 307 306 307 307 307 308 308 308 308 308 308 308 309 309 307 307 307
323 323 325 322 317 318 323 325 327 328 327 326 326 325 325 324 324 325 324 322 321 322 322 322 321 319 319 320 320 320 319 319 318 317 317 316 316 317 317 317 315 312 311 310 311 311 310 308 309 311 313 313 313 312 311 308 306 306 306 305 305 305 305 305 305 307 308 309 309 309 309 307 306 306 307 308 308 307 307 308 308 307 306 306 305
322 323 324 321 317 318 322 324 325 327 327 327 327 325 324 323 324 323 324 324 322 322 321 322 321 320 319 320 321 320 319 319 318 317 317 316 315 317 318 318 317 315 314 312 311 311 311 309 308 307 310 312 312 312 312 311 309 309 308 307 306 305 306 306 306 306 307 308 309 309 309 309 308 305 305 306 307 307 307 307 307 307 306 306 305
323 323 322 318 316 318 320 323 324 325 327 326 326 325 323 322 323 323 324 324 323 322 322 322 321 320 319 320 321 321 320 320 319 317 318 317 315 316 319 319 318 317 315 315 313 311 311 311 309 307 307 309 310 310 312 312 311 311 311 309 308 307 307 307 308 309 308 308 308 308 308 309 309 307 306 305 306 306 307 307 307 307 307 305 303
323 322 319 316 316 318 319 321 323 324 326 326 325 324 323 322 322 323 323 323 323 322 322 322 321 320 320 320 321 321 320 320 319 318 318 318 318 318 319 319 319 318 316 316 315 313 312 312 311 310 308 307 308 308 310 312 311 312 312 312 311 310 309 309 309 310 310 310 308 308 308 308 308 308 307 305 305 306 307 308 307 307 306 303 300
321 321 321 319 318 317 317 319 321 323 325 325 326 324 322 322 321 322 323 323 323 322 321 322 322 322 322 321 321 320 320 320 319 319 319 318 318 318 319 319 319 319 318 318 316 315 314 314 313 313 312 311 310 309 310 310 310 310 311 311 311 312 311 311 310 310 311 311 310 309 309 309 309 308 308 307 306 306 306 307 307 305 303 300 299
323 323 323 321 319 316 316 319 321 323 325 325 325 325 323 322 322 322 322 322 323 322 322 322 323 323 322 321 321 320 320 319 319 319 319 318 317 317 319 320 319 320 319 318 317 316 316 315 315 316 315 314 314 313 313 313 312 311 311 311 311 311 312 312 311 311 311 312 312 311 310 310 310 309 308 308 307 306 306 306 305 304 301 299 298
323 324 323 322 321 316 314 317 319 321 323 324 325 324 323 322 322 322 322 322 323 322 321 321 322 323 322 321 321 320 320 320 319 320 320 319 318 319 320 320 319 319 319 318 318 317 317 317 316 316 316 316 315 315 315 315 314 314 313 313 313 312 312 312 312 312 312 312 312 312 312 311 310 310 309 308 307 306 306 305 304 303 301 300 299
320 322 321 321 322 317 313 314 318 319 320 322 323 323 323 323 322 323 323 323 323 322 321 321 321 321 322 322 321 320 320 320 320 321 321 321 321 321 320 320 320 320 320 319 318 318 318 317 317 317 316 316 316 316 317 317 316 316 315 315 315 314 314 313 313 313 313 312 312 312 312 311 310 310 309 308 307 306 306 305 304 303 302 301 299
318 319 319 319 319 315 311 311 314 317 320 321 322 323 323 323 323 323 323 323 323 322 321 321 321 321 321 321 321 321 320 320 320 321 321 321 321 320 320 320 321 320 320 320 319 319 319 319 318 318 317 316 316 317 319 318 318 317 317 317 317 317 317 315 315 314 313 313 312 312 312 311 310 310 309 309 308 306 305 304 303 303 302 301 300
318 317 315 315 314 309 307 309 311 314 318 321 322 323 323 323 323 323 322 322 322 321 321 321 322 321 322 322 322 321 319 319 319 320 320 320 320 319 319 320 321 320 320 320 320 319 319 319 319 319 318 317 316 318 320 319 319 318 318 318 318 318 318 317 316 315 314 314 313 313 312 311 311 310 309 309 308 306 305 303 303 302 302 301 301
315 314 312 311 309 305 304 306 307 309 313 316 319 322 322 321 322 322 322 322 321 321 320 321 321 321 321 321 320 320 319 318 318 319 320 320 319 319 318 318 320 319 318 319 319 319 319 319 319 319 318 318 318 319 320 319 319 319 318 318 318 318 318 318 317 317 316 315 314 313 312 311 311 310 309 308 307 305 304 303 303 302 302 302 301
310 310 309 310 309 306 304 304 305 306 308 310 313 316 317 317 317 318 318 319 319 320 320 320 321 321 321 320 320 320 319 318 318 319 320 320 320 320 320 319 320 320 318 318 319 319 319 319 319 318 318 319 320 320 320 320 320 319 319 319 318 318 318 318 318 317 316 315 315 314 312 311 311 309 309 308 307 305 304 303 303 302 302 301 301
308 308 308 308 307 307 305 305 304 304 305 306 308 309 311 312 312 312 313 314 315 316 316 317 318 319 320 321 321 321 320 320 320 321 321 322 322 321 320 320 320 320 319 319 319 319 320 319 319 319 319 320 320 319 319 319 319 320 320 320 319 319 318 318 317 317 316 315 314 314 312 311 309 309 308 307 306 304 303 303 303 302 302 301 301
308 310 308 305 304 305 306 306 304 304 305 306 305 305 307 309 309 309 309 311 311 311 310 311 311 312 314 317 320 321 322 321 322 322 321 320 318 317 317 317 316 317 317 318 318 319 319 319 319 319 320 320 318 317 316 316 316 317 318 319 319 319 319 318 318 316 316 315 314 313 312 310 309 308 307 306 305 304 303 303 303 302 301 301 301
309 309 307 304 305 306 306 306 305 303 305 305 305 304 305 306 307 307 307 308 308 308 308 308 308 307 307 309 312 315 317 317 317 317 315 313 312 312 312 312 313 314 315 315 316 317 317 317 317 316 316 316 317 316 316 315 314 315 316 317 317 318 318 318 317 316 315 314 313 312 310 309 308 307 306 305 304 304 303 303 302 302 301 301 301
307 305 303 303 305 307 307 307 305 304 305 305 305 304 304 305 306 306 306 307 306 307 307 307 307 307 306 307 308 309 311 312 312 312 310 309 308 309 309 309 309 310 310 311 311 312 312 313 313 313 313 313 314 314 315 315 315 315 316 316 316 317 317 317 316 314 313 313 311 310 308 308 307 306 306 305 304 304 303 303 302 301 301 301 300
302 301 299 300 301 303 305 306 305 305 305 306 305 305 304 305 305 305 306 306 306 306 306 306 306 306 306 306 307 308 308 309 309 308 307 307 307 307 307 307 307 307 307 307 307 308 308 309 310 311 312 312 312 313 313 314 315 316 316 316 316 316 315 315 313 312 311 310 309 308 307 307 307 306 306 305 304 303 302 302 301 301 300 300 299
299 299 298 298 299 299 300 301 301 302 303 304 304 304 305 306 306 306 306 306 306 305 305 305 305 306 306 306 307 307 307 308 308 307 306 306 306 306 306 306 306 305 305 305 305 305 306 306 307 308 309 310 311 312 312 313 314 316 316 316 315 314 313 312 311 310 309 308 308 307 306 306 306 305 304 303 303 302 301 301 301 300 299 298 297
298 298 298 298 298 298 298 299 299 299 300 300 300 301 303 304 305 306 306 306 306 306 305 305 305 305 306 306 307 307 307 307 307 306 306 305 304 304 305 305 305 305 304 305 304 304 303 304 304 305 305 306 308 310 312 313 314 315 316 315 314 313 312 310 309 308 307 306 306 305 304 304 303 302 302 301 301 300 300 299 298 298 297 296 295
297 298 298 298 298 298 298 298 299 298 299 299 299 300 301 302 302 304 304 304 305 306 306 305 305 305 305 306 306 306 306 307 307 306 306 306 305 305 305 305 305 305 305 306 305 304 304 304 303 303 304 305 307 309 311 313 313 314 314 314 313 312 311 309 308 307 306 305 303 303 302 301 301 300 300 299 299 298 298 297 296 296 295 294 294
297 297 298 298 298 298 298 298 298 298 298 298 299 299 299 300 300 301 302 302 303 305 305 304 304 304 305 305 305 305 306 306 306 306 306 306 306 306 306 305 306 306 306 307 307 306 306 304 303 303 304 306 307 309 311 312 312 312 312 312 311 311 310 309 307 305 304 303 302 301 300 299 299 298 298 297 297 296 296 295 295 294 293 293 292
297 298 298 298 298 298 298 298 298 299 299 298 299 299 299 299 299 299 300 300 301 302 303 303 304 304 305 305 305 305 305 305 305 305 305 305 305 305 305 305 306 307 307 307 308 307 306 305 304 304 305 307 308 310 311 311 310 310 309 310 310 309 309 308 305 303 302 301 300 299 298 297 297 297 296 296 295 295 294 294 293 293 292 292 292
297 297 297 297 297 297 298 298 298 298 299 298 299 299 299 299 299 300 300 300 300 301 301 302 303 303 304 305 305 305 305 305 305 305 304 305 305 304 305 305 306 307 308 308 308 307 306 306 305 305 306 307 308 310 310 309 308 307 307 307 307 307 306 306 305 303 301 299 298 297 297 296 296 296 295 295 294 293 293 293 293 292 292 292 291
296 297 297 297 297 297 297 298 298 299 299 299 299 298 298 299 299 299 300 300 300 300 300 301 302 302 302 303 303 303 304 304 304 304 304 304 304 304 304 304 304 305 306 306 306 306 306 306 306 306 307 307 308 309 308 307 305 305 305 304 305 304 304 303 303 301 299 298 297 296 296 296 295 295 294 293 293 293 293 292 292 292 291 290 290
296 296 296 296 296 296 296 297 298 298 299 299 299 299 299 299 299 299 300 301 301 301 301 301 301 301 301 302 302 302 302 303 303 304 304 304 304 304 304 303 303 303 304 304 304 305 305 306 306 306 306 306 307 306 304 303 302 303 303 302 302 301 300 300 299 298 297 296 296 296 295 295 294 294 293 293 293 292 292 291 291 291 290 290 290
295 295 295 295 295 295 295 296 296 297 298 298 298 298 298 299 299 298 299 300 300 301 301 301 301 301 301 302 301 302 303 304 304 304 304 304 304 304 304 303 304 303 303 303 304 304 305 305 305 306 306 305 305 303 301 300 300 299 299 299 298 298 297 297 297 296 295 295 295 294 294 293 293 293 292 292 292 291 291 290 290 290 290 289 289
294 294 294 294 294 294 294 294 295 296 296 297 297 298 298 299 299 299 299 299 299 300 300 301 301 301 301 302 302 303 303 304 303 303 303 303 303 303 303 304 303 303 304 304 304 304 304 305 305 304 302 300 299 300 299 298 298 297 297 296 295 295 295 295 295 295 294 294 294 293 293 292 292 292 292 291 291 290 290 290 290 289 289 288 288
292 292 292 292 292 292 293 293 293 294 295 295 296 297 298 298 298 299 299 299 299 299 300 300 301 301 301 302 302 303 303 303 303 303 303 303 303 303 303 304 303 304 304 304 304 304 304 304 304 303 300 296 295 296 297 296 296 296 296 295 295 295 295 295 294 294 293 293 293 292 292 292 291 291 291 290 290 290 289 289 289 288 288 288 288
290 291 291 291 291 291 291 292 292 293 293 294 294 295 296 297 298 298 298 298 299 299 299 300 300 300 300 301 301 301 302 302 302 303 303 303 304 304 304 304 304 304 304 304 304 305 305 305 305 304 302 299 297 296 295 295 295 295 295 295 295 295 295 294 293 293 292 292 292 292 292 291 291 290 290 290 289 289 289 289 288 288 288 288 288
289 289 289 289 290 290 290 291 291 292 292 292 293 293 294 295 296 297 298 298 299 299 299 300 300 300 300 300 300 300 301 300 300 301 301 302 303 303 304 304 304 304 304 304 304 305 306 307 306 305 303 302 301 298 295 294 294 294 295 295 295 294 293 292 292 292 292 292 292 291 291 290 290 290 289 289 289 289 289 288 288 288 288 287 287
289 289 289 289 289 289 290 290 290 290 290 291 291 291 292 293 294 295 296 297 298 299 299 299 299 299 299 300 300 300 301 300 300 300 300 301 302 302 302 303 303 304 304 304 305 306 307 307 306 305 304 302 300 296 294 293 294 295 295 294 293 292 292 292 292 292 292 292 291 291 290 290 290 289 289 289 289 289 288 288 288 288 287 287 287
Wind_Speed
6 10 14 16 16 15 16 18 19 17 17 21 25 25 24 23 21 19 19 19 18 18 17 17 16 14 12 10 9 8 7 6 5 4 4 5 6 6 7 6 6 6 6 7 8 7 6 6 6 7 9 10 9 10 11 11 13 14 12 10 12 13 12 10 9 9 7 6 5 4 4 5 5 3 2 2 3 3 3 3 4 5 5 7 7
5 8 12 17 17 16 18 20 20 19 20 24 27 27 25 23 22 22 22 21 20 19 18 18 17 15 13 12 11 10 9 8 7 7 6 6 6 6 6 6 7 7 8 8 7 5 4 3 2 4 7 9 9 10 10 11 12 14 13 11 11 12 11 10 10 8 5 4 4 2 3 5 6 6 4 1 1 2 3 3 3 3 5 6 6
5 7 10 16 18 17 19 21 21 22 24 26 28 27 25 23 24 25 25 23 21 19 18 18 17 15 14 13 13 12 11 9 8 9 9 8 8 7 7 7 7 7 7 7 6 6 6 5 4 3 5 7 9 10 10 11 12 13 13 12 11 11 10 9 9 6 5 6 4 2 1 2 3 5 6 4 2 2 2 3 4 4 4 5 5
8 8 8 12 15 17 20 22 23 23 24 26 28 28 27 26 27 27 26 24 21 19 18 18 17 16 14 15 14 13 11 10 9 10 9 9 8 7 6 5 6 6 5 6 7 7 7 6 5 4 4 5 6 7 9 11 13 14 13 12 11 11 9 7 7 5 6 6 3 2 1 2 1 2 4 5 4 4 4 4 4 4 4 4 5
10 10 10 10 12 16 19 22 23 23 25 28 30 30 30 29 28 27 25 23 21 20 19 19 19 18 17 16 15 14 14 12 11 11 9 9 8 6 5 4 5 6 5 5 6 8 7 5 5 5 4 4 4 5 7 10 12 12 11 11 10 10 9 7 7 5 6 5 3 3 2 1 1 1 2 3 4 5 5 5 4 3 3 3 2
6 7 8 8 10 15 19 22 24 24 27 30 32 32 31 30 28 27 25 23 21 19 19 19 19 19 19 19 18 18 18 15 13 11 10 8 8 7 5 5 6 6 6 5 5 5 5 4 5 6 6 6 5 5 7 8 8 9 8 8 7 7 7 7 7 7 6 5 3 4 2 1 3 2 1 1 2 3 4 5 5 4 3 2 1
4 5 5 7 11 16 19 23 26 26 27 30 31 32 31 30 30 29 26 24 22 20 18 18 18 19 20 20 19 18 17 15 13 11 10 8 8 8 7 7 6 6 6 6 6 5 4 4 6 7 7 8 7 7 8 7 7 7 6 5 5 5 5 6 8 8 7 6 3 4 4 5 5 3 3 1 1 1 2 3 3 1 0 1 2
6 7 7 8 13 17 20 24 26 27 28 29 30 32 32 32 32 30 28 25 23 20 18 18 19 20 21 19 17 16 14 13 12 11 11 10 10 9 9 8 7 6 6 6 7 7 5 5 6 8 9 9 8 8 8 7 6 5 5 5 4 3 2 3 6 8 8 7 6 4 4 4 3 3 3 2 2 1 2 2 2 3 4 5 5
7 7 7 9 14 19 22 24 25 27 28 30 31 32 32 33 32 30 27 24 22 20 18 19 20 21 21 20 17 15 12 11 11 11 10 10 10 10 9 8 8 7 6 6 7 7 6 6 6 9 10 8 7 6 7 7 7 6 6 5 4 4 3 2 4 7 7 7 8 6 3 4 4 4 4 3 3 2 1 2 3 5 8 11 11
6 6 6 8 13 18 20 23 25 26 28 30 30 31 32 31 28 24 20 18 17 17 18 20 22 23 23 22 19 16 14 12 12 10 9 9 9 9 9 8 8 8 7 8 9 8 7 7 7 8 7 5 4 3 4 5 6 7 8 7 7 7 6 6 6 5 5 5 7 7 5 6 5 3 4 4 4 4 3 0 2 4 5 10 14
7 6 5 6 10 15 19 23 23 23 25 26 27 29 27 22 19 16 14 15 17 18 20 23 25 26 25 23 21 19 18 16 15 12 11 10 9 8 8 8 8 9 10 11 11 10 9 9 8 7 6 4 3 2 1 3 4 6 7 8 8 8 8 8 8 8 7 7 6 5 6 6 4 4 4 3 2 3 3 1 2 3 2 6 13
6 6 6 6 7 11 16 19 20 21 23 23 25 23 18 16 19 19 19 22 24 24 25 27 28 27 25 24 22 21 20 19 17 16 15 13 12 10 9 8 9 10 12 12 12 11 9 8 7 6 6 6 4 3 2 2 4 5 6 7 8 9 9 9 10 10 9 10 9 8 8 7 6 6 5 4 4 4 4 3 3 4 2 3 7
7 6 6 6 6 9 14 17 18 20 22 22 21 18 17 19 24 26 28 29 28 27 29 30 29 27 24 23 23 21 21 20 18 17 17 16 14 13 11 9 10 11 12 12 11 10 7 6 6 7 8 7 6 5 5 5 5 7 8 9 9 9 8 9 10 11 10 10 11 10 9 7 7 7 5 5 6 6 7 6 3 4 3 3 4
6 5 6 6 6 10 13 16 17 18 20 21 19 18 20 24 26 30 32 31 31 31 31 29 25 24 22 21 21 20 19 20 18 19 19 18 16 14 12 11 11 12 12 12 11 9 7 7 9 10 10 9 9 8 8 8 8 8 8 8 8 7 7 8 9 10 10 10 9 9 8 7 7 6 4 5 5 6 8 8 4 3 3 4 6
4 4 3 2 5 10 12 14 16 18 20 20 19 20 23 25 27 31 31 33 33 28 25 24 22 22 20 20 20 16 17 20 19 19 20 19 16 14 13 12 11 12 13 12 11 10 9 9 11 11 11 10 10 9 9 9 9 9 8 7 7 6 6 8 9 9 9 9 8 8 8 8 7 6 5 6 7 7 9 9 7 4 3 5 6
5 4 5 4 3 7 11 14 16 18 20 21 20 21 24 26 27 31 32 31 23 15 16 18 19 19 18 20 22 19 21 23 20 19 20 18 16 14 13 12 11 12 14 13 12 11 10 10 11 11 11 11 10 10 9 9 9 9 9 8 8 7 7 8 8 8 8 9 8 7 8 10 10 9 9 9 8 9 9 9 9 8 5 3 4
5 4 4 4 5 6 8 13 17 19 21 22 21 21 24 26 27 30 28 20 20 18 18 22 22 19 19 22 24 24 26 24 21 20 20 18 15 13 13 12 11 12 14 13 13 12 11 11 10 11 11 11 11 10 10 10 9 9 10 9 9 9 8 8 8 8 9 9 8 8 9 11 12 11 11 10 9 9 9 9 9 9 8 4 2
3 2 3 3 5 7 6 10 16 21 23 25 25 23 24 25 26 28 20 18 26 28 27 27 26 22 21 23 25 28 27 23 20 19 19 17 15 14 13 12 11 13 14 13 12 12 12 11 11 11 11 11 11 11 10 10 10 10 10 10 10 9 9 8 8 8 8 8 8 9 8 9 10 10 10 9 8 8 8 8 8 8 8 6 4
5 3 3 3 5 7 7 7 11 16 20 23 23 20 19 18 19 22 17 18 26 28 27 29 27 23 24 25 26 29 27 23 20 19 18 16 15 14 14 13 13 14 14 14 13 12 12 13 13 11 11 11 11 11 11 11 10 10 11 11 11 10 9 9 8 7 7 7 7 8 7 7 8 8 7 7 6 6 6 6 6 6 7 7 5
4 3 3 3 5 7 7 7 7 9 12 16 17 15 13 13 14 16 17 19 24 25 28 32 29 26 26 26 26 29 28 24 21 20 19 16 14 15 14 13 14 15 15 15 14 13 13 14 15 13 12 12 11 11 10 11 10 10 10 11 11 10 9 9 8 6 6 5 5 6 7 6 5 4 5 5 5 6 6 6 5 5 7 7 6
4 4 4 4 6 9 8 6 6 7 8 11 13 11 11 11 13 14 15 19 23 26 30 33 32 30 26 24 27 28 27 24 22 20 19 15 14 16 16 14 15 16 16 16 15 14 13 14 16 16 15 13 12 11 10 10 10 10 9 10 10 10 9 9 8 7 7 6 4 4 5 5 4 3 2 3 3 5 5 6 6 6 7 8 9
3 3 4 4 6 8 8 7 7 8 8 9 11 10 10 11 12 13 14 19 24 28 30 32 33 32 26 23 25 27 25 24 22 21 19 16 14 18 20 19 18 17 17 16 16 15 14 14 15 16 17 16 14 13 12 12 11 11 10 10 10 10 10 9 9 8 8 7 5 3 3 3 3 3 2 1 2 3 3 4 5 5 7 9 10
4 3 2 4 6 7 7 7 7 7 7 7 8 8 8 10 13 15 16 19 23 26 29 31 32 31 26 21 22 24 24 23 24 24 22 17 16 19 22 23 21 20 19 18 17 16 15 15 15 16 17 17 17 15 14 13 13 12 11 11 11 11 11 11 10 9 9 8 6 5 3 3 2 1 1 1 0 1 2 2 4 5 6 8 10
3 3 3 5 7 7 7 6 5 5 6 6 6 5 6 7 12 15 17 18 20 23 26 28 28 27 24 22 23 24 24 25 26 26 23 19 18 20 23 24 23 22 21 20 20 19 18 17 16 15 16 17 17 17 16 15 14 14 13 12 12 12 12 12 11 10 10 9 8 6 5 4 3 2 1 1 1 1 1 1 2 3 5 6 8
4 4 4 5 5 5 6 5 4 4 5 6 5 5 6 7 9 13 16 17 18 20 23 24 23 23 24 24 24 25 27 26 26 26 24 20 20 22 23 23 23 23 23 23 24 24 22 21 19 17 17 17 17 17 17 16 16 15 15 15 15 14 14 14 13 11 11 11 9 8 7 6 6 5 4 3 3 3 2 2 1 2 3 5 7
6 5 5 4 4 5 5 5 5 5 5 6 6 5 6 7 9 10 13 16 17 18 20 21 21 22 25 26 26 27 27 26 26 26 25 24 23 24 24 23 23 24 26 26 28 27 25 24 23 20 19 19 18 18 17 17 17 17 17 16 17 17 16 16 16 15 14 13 12 11 9 9 8 8 6 6 5 4 3 2 2 2 3 5 7
5 5 5 4 4 4 5 5 6 5 5 5 6 5 5 8 9 10 11 12 13 15 17 19 20 22 24 26 27 26 25 25 24 24 25 26 25 25 26 26 27 27 27 28 29 29 26 25 24 23 23 22 21 20 19 19 19 19 19 18 18 18 19 19 19 18 17 16 15 14 13 12 11 10 9 7 6 5 4 3 4 4 5 6 7
4 5 5 5 4 4 5 7 8 6 5 5 6 5 5 6 8 10 10 11 11 12 14 18 21 23 24 25 26 26 25 23 21 21 21 21 23 26 27 28 28 26 27 27 27 25 24 25 24 23 24 25 24 23 22 22 22 21 21 21 20 20 21 21 21 21 20 19 17 16 16 15 14 13 11 9 7 7 6 5 5 5 6 8 8
5 5 4 4 3 1 1 5 8 9 8 7 7 6 7 7 8 9 10 10 11 12 13 15 19 21 23 23 23 24 23 23 22 21 19 19 23 25 23 23 22 20 21 22 19 19 21 22 21 20 22 26 29 28 25 24 25 25 24 24 23 23 23 24 24 24 23 22 20 18 18 18 17 16 14 11 9 8 7 6 6 6 7 8 8
6 7 6 6 5 5 5 2 2 6 10 11 10 10 9 10 10 11 11 11 12 13 14 15 17 18 20 21 21 21 21 21 22 21 20 22 24 21 18 19 19 18 19 18 16 17 19 20 18 18 20 26 30 29 25 24 26 26 26 26 26 26 26 26 26 26 25 24 23 21 20 19 18 17 15 13 10 9 8 7 7 6 7 8 7
7 7 7 7 7 8 9 9 6 2 5 9 11 12 11 11 12 12 13 13 14 15 16 18 19 19 19 19 20 20 20 20 21 22 23 25 23 20 20 22 20 17 17 17 20 21 21 20 18 18 21 25 26 24 22 23 24 24 24 25 25 25 25 25 26 28 28 27 26 24 22 21 20 19 16 14 11 9 9 8 7 7 8 8 7
8 8 8 8 8 9 11 13 14 11 5 3 6 9 11 11 11 11 11 11 11 12 13 15 17 17 17 17 18 19 19 21 22 22 23 24 23 21 21 21 20 16 14 16 20 21 19 18 19 20 23 22 18 16 16 18 19 19 20 21 22 23 23 23 25 27 30 30 28 26 24 22 21 20 17 14 11 9 8 8 7 7 8 8 7
8 7 8 8 8 10 13 15 18 18 15 10 4 3 6 8 8 8 9 9 9 8 8 10 11 12 13 14 15 17 19 20 21 20 19 19 17 16 15 14 13 11 10 12 14 14 14 17 20 20 17 12 8 7 8 9 10 11 12 15 17 19 21 22 24 25 27 29 28 26 25 23 22 19 16 13 11 9 8 8 8 8 7 7 7
6 6 6 7 10 13 16 19 20 21 20 18 15 10 3 4 7 7 7 8 8 7 7 7 7 8 9 12 13 15 17 17 16 15 14 13 11 10 8 7 6 5 6 7 7 8 9 11 12 10 8 7 6 5 5 5 6 6 7 9 11 15 18 20 22 22 23 25 26 26 26 24 22 18 15 12 9 8 8 8 8 8 8 8 9
7 6 6 8 10 13 17 20 20 20 21 22 22 21 15 5 2 4 5 5 5 4 4 5 5 5 6 9 11 12 13 13 12 11 10 9 8 7 6 5 4 4 4 4 4 4 3 3 3 4 5 6 7 6 6 6 6 6 6 7 9 11 14 17 19 19 19 21 23 23 23 22 19 16 13 10 9 9 9 9 9 9 9 10 11
6 8 10 12 11 10 12 13 14 16 18 20 21 22 21 17 10 5 4 4 3 2 1 2 4 5 5 7 9 10 11 10 10 10 10 9 8 7 6 5 4 4 4 3 3 3 2 1 2 3 5 6 7 8 9 9 9 9 8 8 9 10 11 12 13 14 14 16 17 17 19 19 17 14 12 11 10 11 11 11 11 10 10 10 10
9 11 15 17 15 12 11 9 9 11 13 14 17 18 20 20 18 13 10 7 7 8 7 4 0 3 5 6 7 8 10 11 12 13 11 9 8 6 5 3 2 1 1 1 1 1 1 2 3 4 6 8 8 9 9 10 11 11 10 9 8 8 8 8 8 9 10 11 13 15 16 16 14 12 12 12 12 13 13 12 11 10 9 9 8
13 14 17 19 19 17 15 14 13 13 11 11 13 14 15 16 16 14 12 10 8 9 11 9 6 3 1 6 8 9 11 13 13 12 11 9 7 6 4 3 1 2 2 1 2 3 4 4 5 6 8 9 10 10 10 11 12 12 11 10 8 6 6 7 8 9 10 12 13 13 12 11 11 11 11 11 12 12 11 10 9 9 8 8 7
14 14 15 16 17 17 17 17 17 17 15 13 14 14 13 13 14 13 12 9 5 4 5 5 4 5 4 2 8 11 13 13 12 11 9 7 6 5 3 3 5 6 5 4 5 6 6 7 8 9 10 11 11 11 11 12 12 11 10 9 8 7 7 10 11 11 12 12 12 11 9 9 10 10 9 8 8 7 6 6 6 6 6 7 8
13 13 13 14 15 15 16 16 16 17 17 15 14 14 12 12 12 11 11 11 9 11 9 5 3 3 3 1 2 6 9 11 11 10 8 7 7 6 4 5 7 7 7 7 7 8 8 10 12 12 12 12 13 13 12 11 10 10 9 9 9 9 11 13 14 13 13 12 11 11 10 9 8 7 6 5 4 3 3 3 4 5 6 8 9
13 13 14 14 14 14 14 14 15 15 16 15 15 14 14 14 14 13 13 12 11 11 12 10 7 6 5 3 3 3 5 6 7 7 6 6 6 5 6 7 8 8 8 9 9 8 8 10 12 14 13 13 13 13 12 9 8 8 8 9 10 12 13 14 15 14 14 13 12 11 10 8 6 5 4 2 2 2 3 4 5 6 6 7 8
17 17 17 16 16 15 14 14 15 16 16 15 15 15 15 15 15 15 16 16 15 13 13 13 11 10 8 8 7 7 7 6 5 5 4 4 4 4 5 6 7 9 10 10 9 8 8 9 11 12 13 12 12 11 10 8 7 7 9 10 12 13 14 15 15 15 14 13 12 11 9 8 6 4 2 1 2 3 4 4 4 5 5 6 7
19 20 20 18 18 18 17 16 16 16 17 16 14 14 14 14 15 15 16 18 18 17 16 15 13 12 10 9 9 10 10 9 8 6 5 4 4 3 3 4 5 7 8 9 8 8 8 8 8 9 11 11 10 9 7 7 8 8 9 10 11 12 13 14 14 14 14 13 12 10 8 6 3 1 1 2 3 3 3 3 4 4 5 6 8
21 22 22 21 20 21 21 20 19 17 17 16 15 14 14 14 15 14 14 15 17 18 18 18 16 16 14 13 12 12 13 12 10 8 7 6 5 5 5 5 5 6 8 9 9 9 9 9 8 8 9 8 8 7 7 8 9 10 10 10 10 11 12 12 11 11 12 12 10 8 6 3 1 1 2 2 2 2 2 2 3 4 5 7 9
21 22 22 22 22 22 23 23 22 20 19 18 17 15 15 17 17 16 14 13 13 15 17 18 19 19 18 18 18 17 16 16 14 12 11 10 8 8 9 8 7 7 8 9 10 10 10 9 9 8 8 7 6 7 8 9 10 10 10 10 10 10 9 9 9 10 10 9 7 6 4 2 1 1 2 2 3 3 2 2 3 5 7 9 10
19 20 22 23 23 23 22 22 23 22 21 19 18 17 18 19 19 18 16 14 13 13 13 15 18 21 22 22 22 20 18 17 16 15 14 13 12 11 11 10 9 9 8 8 9 10 10 11 11 10 9 9 9 11 11 12 12 12 11 10 10 10 9 8 9 9 9 7 6 5 5 5 6 6 5 5 4 3 2 3 5 7 9 10 11
17 19 22 24 23 22 22 22 24 25 23 21 21 20 19 20 19 18 17 16 15 15 14 13 13 15 18 20 21 20 18 17 16 14 14 13 13 12 11 11 10 10 10 9 8 9 10 12 12 11 10 11 12 14 15 14 13 13 12 11 10 9 8 7 7 8 8 8 9 9 8 8 8 6 5 3 2 2 3 5 7 9 10 12 13
19 20 21 22 22 23 23 23 25 26 25 25 25 23 21 21 20 19 18 17 17 17 17 14 12 11 11 13 15 17 17 15 14 14 13 13 13 13 13 12 11 11 12 11 10 10 12 13 13 13 12 12 12 15 16 16 16 15 14 12 10 8 7 7 9 10 11 12 12 11 10 8 6 4 3 2 3 4 6 7 9 11 12 13 15
21 21 21 21 22 24 25 26 27 26 26 26 27 27 24 22 21 21 20 20 19 18 18 18 17 15 14 12 11 11 12 13 13 13 13 13 13 13 13 12 12 13 13 12 12 12 12 13 14 15 15 16 18 20 19 17 16 13 11 9 9 9 9 10 11 13 14 15 13 10 8 6 5 4 4 4 5 7 8 9 10 12 14 15 17
22 23 23 23 23 24 25 27 28 27 26 27 29 29 28 25 22 21 20 21 21 20 20 20 19 18 17 16 15 12 10 11 12 13 13 13 13 14 14 14 14 15 14 14 13 12 11 11 13 15 16 17 19 21 21 18 15 12 9 9 10 10 11 13 14 15 14 13 11 9 7 6 5 5 5 6 7 8 9 11 12 14 16 17 19
22 22 23 23 23 23 24 26 27 27 27 28 29 31 32 30 27 23 20 20 20 20 21 21 20 20 20 19 18 16 14 13 13 13 14 15 15 14 14 15 16 16 15 15 14 13 11 10 11 15 17 16 16 20 22 19 15 13 12 11 12 12 13 15 15 14 12 10 9 8 7 6 5 6 6 6 7 8 10 12 15 16 17 18 20
Wind_Direction
175 163 164 168 169 170 179 189 192 193 197 199 197 196 195 193 191 193 195 196 193 191 189 182 177 177 176 175 175 180 187 186 183 189 200 202 200 203 205 210 207 191 184 187 191 207 216 221 235 242 249 251 248 243 235 225 212 206 203 191 178 173 170 173 177 174 171 165 153 140 115 103 99 102 140 214 215 224 223 202 221 228 225 237 247
145 158 162 166 171 171 175 184 188 183 182 187 187 187 189 189 189 188 189 189 187 186 183 180 180 179 173 167 162 160 161 155 143 137 134 139 145 158 167 163 164 161 156 164 170 163 150 149 184 222 237 239 232 228 225 217 209 205 203 192 177 173 173 174 178 177 173 167 158 137 94 97 99 90 78 72 176 200 210 188 188 198 200 214 230
166 173 169 173 174 171 170 176 182 180 177 178 179 179 180 181 181 179 180 183 183 184 183 179 178 180 176 166 161 158 155 150 141 135 131 133 132 136 145 143 148 155 152 157 158 140 119 109 123 176 208 214 216 215 209 207 208 205 203 201 185 170 167 172 181 184 168 149 117 66 52 83 87 79 76 76 92 122 154 184 185 178 172 179 197
180 182 177 179 176 169 168 170 175 176 174 173 172 173 173 173 174 174 177 180 181 181 180 177 175 176 175 169 167 162 158 156 148 143 143 146 145 146 152 155 162 162 150 152 154 146 134 119 127 159 179 190 206 212 202 201 207 207 206 209 198 175 164 167 179 180 164 152 109 64 48 64 63 24 65 86 103 120 132 158 178 183 172 165 180
182 185 181 180 173 168 169 171 173 175 176 174 172 172 172 173 174 176 178 179 180 180 180 178 175 173 169 162 159 154 154 157 153 150 153 155 155 159 164 179 185 168 148 147 151 150 143 133 143 149 141 149 174 202 202 200 207 209 208 211 207 193 181 172 175 175 166 162 137 120 81 54 206 300 38 81 108 130 139 143 151 158 152 147 156
190 192 184 172 162 164 170 173 174 179 180 176 175 176 176 177 179 179 178 178 179 180 183 181 180 179 174 166 160 153 151 155 156 154 157 158 153 152 149 159 169 159 153 155 159 162 156 156 158 140 125 131 146 172 184 188 194 197 199 205 210 209 199 183 178 177 172 167 135 123 112 135 166 138 95 46 52 98 127 137 140 137 130 122 86
189 189 177 165 163 166 175 178 179 182 181 178 178 178 179 181 182 181 178 177 178 180 184 186 187 189 187 183 179 171 163 160 157 153 156 155 146 144 143 144 150 154 158 163 168 172 172 176 165 143 132 135 137 144 151 157 168 176 183 190 199 208 206 194 187 182 179 176 154 129 114 109 117 122 134 135 46 49 61 105 130 141 211 315 320
179 182 175 175 178 177 179 181 181 183 181 179 179 179 182 183 182 180 178 178 180 182 185 191 193 192 191 191 189 186 181 168 157 151 150 150 145 142 142 141 144 153 160 168 171 165 159 168 166 154 149 146 143 137 130 126 132 151 166 172 180 185 185 202 196 188 185 186 178 154 116 108 110 117 131 130 134 168 348 44 72 64 61 42 21
178 183 181 183 185 183 182 180 181 185 183 182 181 180 182 183 181 179 178 179 181 183 186 191 194 192 191 191 186 182 182 173 163 156 151 152 149 143 142 141 141 147 158 173 180 170 161 163 162 160 157 148 143 131 115 111 107 110 123 134 141 143 134 130 171 180 186 193 189 174 133 119 116 111 124 117 104 113 266 319 19 54 65 54 47
179 183 184 191 190 184 180 179 184 187 187 185 183 182 183 183 179 172 171 174 178 183 187 189 192 192 191 189 182 175 173 171 167 167 169 171 165 155 150 144 139 139 149 166 173 167 158 155 152 154 156 148 136 124 111 111 105 103 107 112 119 123 121 117 120 134 155 175 186 185 157 129 115 108 124 121 97 90 108 173 20 48 52 50 60
170 167 159 172 185 181 178 182 186 189 190 188 186 185 182 172 158 149 158 174 182 188 190 191 191 191 191 190 183 174 172 171 170 177 188 192 187 177 166 157 148 141 143 151 155 153 149 146 146 149 156 162 156 153 137 108 101 104 108 110 111 109 108 111 108 108 117 123 137 164 154 132 113 105 112 119 110 90 99 108 25 52 60 62 74
153 152 140 142 165 176 181 184 186 190 192 191 190 182 162 147 149 156 171 186 194 197 196 193 190 190 190 191 186 179 175 175 176 183 191 195 195 190 182 172 162 153 150 151 151 152 150 144 147 159 169 181 186 189 182 126 106 107 117 118 109 104 101 101 104 108 115 117 115 121 124 119 105 97 90 78 77 80 91 85 32 40 59 72 84
148 150 153 158 166 177 185 185 187 193 195 195 188 167 151 160 170 176 185 192 195 198 196 192 188 187 188 191 189 182 180 180 180 186 190 193 195 194 194 187 174 167 162 161 158 157 159 150 144 147 151 157 157 154 153 147 135 122 123 125 116 110 108 105 108 112 115 115 115 115 114 110 101 92 85 82 82 74 73 72 48 51 56 41 59
143 151 166 176 178 184 188 186 189 194 198 198 183 161 164 174 179 186 190 192 194 195 191 183 180 183 186 192 190 183 186 187 184 187 188 191 196 198 201 198 185 177 172 171 169 167 169 155 141 134 131 132 130 129 133 140 149 144 136 134 127 122 122 119 117 116 115 114 116 118 111 103 96 89 87 88 82 72 67 58 47 71 60 41 49
95 111 123 149 175 185 186 184 190 196 200 200 184 168 172 178 183 191 193 193 193 187 175 171 177 182 185 192 193 195 205 199 189 190 190 190 196 201 204 202 193 184 180 180 180 181 177 157 142 136 132 133 131 128 126 127 139 149 150 149 142 141 141 132 125 120 116 112 112 114 107 97 91 89 90 84 75 71 67 55 50 66 47 23 37
32 64 77 67 126 172 185 186 192 199 203 204 191 173 175 182 186 193 198 194 179 147 140 163 177 181 187 196 198 205 209 199 192 193 193 194 199 204 205 202 199 193 187 186 187 191 186 166 151 144 140 140 138 135 131 128 131 136 142 147 144 149 154 145 138 132 121 111 106 106 104 97 90 88 91 90 83 72 63 54 51 66 74 30 9
12 7 55 65 84 117 169 189 196 202 207 211 204 186 183 189 190 194 196 174 148 149 167 182 187 187 199 208 204 202 201 197 196 197 196 199 202 208 210 207 206 201 194 191 190 193 190 177 164 156 151 148 145 143 141 138 137 134 134 138 140 148 154 148 147 144 131 116 104 103 105 101 96 96 95 92 89 77 66 59 53 59 70 84 80
117 16 26 38 62 81 122 176 197 205 211 215 213 201 193 196 198 200 191 144 150 176 187 189 192 194 208 218 209 202 198 197 200 200 199 202 205 210 212 213 212 205 200 197 196 198 197 191 184 174 166 159 154 153 152 150 147 142 139 136 137 145 149 145 148 147 137 123 107 103 106 105 104 104 101 93 88 79 68 64 59 53 53 67 99
108 87 44 31 44 61 94 143 184 203 213 217 214 204 192 193 199 203 193 158 165 185 189 189 194 205 219 222 211 203 199 197 200 202 201 205 212 214 213 216 214 208 205 202 201 204 205 203 202 195 186 178 171 166 166 167 163 156 153 148 144 148 149 146 149 148 140 128 112 104 102 106 107 108 106 92 77 73 62 60 63 53 49 53 65
117 127 101 67 63 69 93 125 157 187 209 218 215 203 186 188 194 193 188 177 179 190 194 194 201 215 222 217 209 204 200 197 200 202 202 205 214 217 217 220 217 212 210 206 204 206 207 207 208 208 204 197 191 187 183 183 179 172 166 160 157 157 157 154 155 159 154 140 121 105 98 99 101 108 107 85 68 65 59 65 71 60 58 52 43
142 139 114 89 76 77 91 119 154 182 203 213 210 196 177 183 188 181 175 178 185 192 196 198 203 210 211 205 204 204 200 200 202 203 202 203 216 224 224 224 222 218 216 213 212 211 210 210 210 212 213 209 207 206 204 201 196 190 183 177 174 172 173 170 165 169 171 164 151 123 106 98 87 90 110 92 69 63 59 66 67 49 44 38 27
107 91 82 81 79 85 103 132 159 182 198 207 207 197 179 172 174 174 173 179 185 190 193 196 198 202 203 200 201 202 200 202 203 203 201 200 216 228 227 226 227 225 223 222 222 220 219 219 215 215 215 215 218 218 216 216 214 207 200 196 195 192 192 189 180 178 178 176 179 168 139 116 86 70 91 107 68 61 54 52 49 32 25 22 14
96 81 70 91 98 106 120 134 152 170 184 196 203 201 191 173 167 170 172 177 183 187 191 193 194 198 204 203 201 200 200 202 204 204 202 202 218 228 229 230 230 229 228 228 229 228 227 227 224 222 220 219 223 225 225 226 226 225 219 212 212 212 210 207 200 192 188 188 191 186 182 177 154 85 76 93 74 69 45 33 37 21 11 11 5
127 142 142 124 117 114 113 118 138 159 178 193 191 184 185 179 175 176 177 177 180 184 188 191 192 196 200 201 200 200 199 201 203 204 202 207 221 228 230 232 233 233 234 234 234 232 230 231 230 229 227 226 228 230 232 233 233 236 236 232 230 228 227 227 221 211 205 206 203 196 200 205 202 210 211 217 222 214 310 351 20 7 3 4 1
164 157 134 124 118 109 107 113 128 153 183 201 192 167 167 180 186 188 187 186 184 181 181 184 188 192 194 197 201 202 201 200 201 203 205 212 223 228 231 233 235 236 236 237 237 235 233 233 232 233 233 233 234 234 236 238 239 240 241 243 244 243 244 244 239 232 225 224 220 212 212 214 215 220 222 226 231 232 248 259 310 350 358 360 359
162 145 124 118 112 109 118 131 149 168 185 201 203 180 165 179 196 200 198 197 194 190 185 180 180 186 191 197 201 199 198 199 202 205 208 212 220 228 230 230 233 235 232 233 237 237 238 238 238 241 242 240 240 241 242 244 244 244 243 245 247 249 251 251 250 244 238 236 235 231 229 228 226 226 227 231 234 234 241 257 303 334 349 355 359
148 133 123 115 110 122 139 151 164 177 182 192 205 201 180 180 194 205 211 208 201 199 197 187 180 184 191 196 197 195 194 196 201 207 211 214 221 228 228 227 231 233 231 231 233 235 238 240 242 247 250 250 249 249 251 251 250 250 248 248 249 251 252 253 254 251 245 242 241 239 240 239 236 233 230 234 239 239 249 273 297 316 333 344 351
92 105 117 124 130 145 157 163 166 171 181 186 191 202 205 196 197 204 216 224 219 210 202 192 186 189 194 197 196 193 193 196 198 202 206 212 219 222 222 224 227 231 232 231 231 236 242 243 243 246 254 259 259 256 256 257 257 256 254 253 253 253 255 255 254 253 250 246 244 242 241 241 242 239 235 237 243 245 253 267 281 293 307 324 335
42 50 54 69 73 48 156 170 168 164 167 175 181 189 196 198 204 207 212 224 231 224 214 205 201 200 204 206 202 199 201 204 205 203 204 212 217 217 219 224 225 225 230 230 231 241 249 249 246 248 255 260 259 257 257 257 258 260 259 259 257 256 257 257 256 254 251 247 244 243 241 240 241 240 236 238 243 246 252 257 262 272 291 312 322
41 44 35 44 45 30 28 28 185 179 172 169 175 182 185 188 194 202 208 214 221 221 217 214 213 213 216 218 216 216 218 218 216 214 214 218 220 217 221 234 233 222 224 235 241 243 247 250 249 248 251 252 252 254 258 259 259 259 260 260 261 260 260 260 260 258 254 249 244 241 240 239 238 235 232 233 237 242 247 248 250 260 283 303 309
34 46 40 39 43 40 38 31 15 310 213 187 177 174 174 178 181 187 197 205 211 215 216 214 213 214 217 219 222 227 230 226 222 220 220 224 229 229 230 240 244 225 214 232 245 244 246 251 251 249 248 247 249 255 261 262 261 259 258 260 262 263 263 263 263 260 256 253 247 241 238 236 232 229 226 227 232 239 245 245 249 264 282 294 298
32 39 37 35 35 36 36 32 28 20 353 268 213 189 176 174 175 177 182 190 200 208 212 213 211 211 215 219 222 227 229 227 224 224 225 228 234 235 230 234 240 232 216 227 240 244 249 252 248 245 245 246 250 257 261 263 264 263 263 263 264 264 264 262 261 259 256 254 248 240 235 230 227 224 222 224 229 234 239 243 255 274 286 293 297
39 36 33 29 21 25 32 32 30 28 24 15 345 246 199 184 178 178 181 185 191 196 201 205 205 206 209 212 215 219 220 222 222 222 224 226 228 231 228 226 233 235 227 226 232 238 240 238 237 238 241 246 255 264 269 272 275 274 270 265 263 263 263 262 261 260 257 253 247 239 231 224 220 218 219 223 228 232 236 244 258 272 279 284 285
38 35 34 30 20 19 25 25 24 26 29 29 24 16 6 195 187 181 179 182 185 189 196 199 197 200 204 205 209 213 213 216 218 220 223 227 227 226 222 216 215 216 213 212 220 229 230 231 236 241 248 256 259 267 282 291 295 294 283 272 266 263 262 262 262 262 259 254 247 238 228 218 211 210 215 223 230 238 243 249 259 264 265 270 274
28 22 17 19 18 17 17 11 7 12 20 22 18 15 15 23 156 166 159 164 175 187 202 205 200 205 212 211 212 213 214 218 221 219 215 207 197 186 172 167 161 153 153 155 165 185 203 223 246 256 260 263 265 271 279 286 294 291 284 284 278 267 260 259 260 260 257 252 245 236 224 213 205 204 212 222 233 244 249 252 254 256 260 267 273
22 20 15 14 13 13 14 3 350 353 0 3 1 359 1 11 20 40 78 100 107 95 116 211 211 214 217 213 211 212 216 215 204 193 183 171 165 160 154 152 143 130 124 123 131 142 161 203 242 264 272 274 276 275 276 281 284 279 277 284 285 275 264 257 255 253 248 243 238 227 212 203 200 204 215 224 232 238 242 244 245 249 259 268 273
17 16 16 17 15 9 9 2 347 347 347 348 349 342 341 351 2 11 26 45 62 57 45 42 152 212 208 204 209 210 204 192 180 176 174 172 169 166 160 157 148 120 99 92 85 46 359 321 304 295 290 287 284 280 279 278 278 276 275 276 279 275 262 247 239 236 231 221 208 201 199 201 207 218 225 227 230 232 234 237 242 249 257 262 268
11 10 10 13 13 9 8 4 359 359 354 350 350 337 321 325 336 345 356 9 29 32 23 25 36 28 220 201 205 202 188 180 179 181 182 182 180 178 181 196 245 311 326 338 342 341 338 326 315 307 301 296 290 285 280 277 277 276 273 272 271 258 231 214 206 200 198 195 190 190 201 212 217 219 219 220 225 232 236 240 245 250 255 260 269
6 9 9 9 8 3 1 2 3 5 4 358 351 337 315 304 308 309 311 318 316 312 338 2 18 8 9 194 204 205 199 196 198 198 198 200 197 192 208 273 298 306 310 317 325 332 335 330 321 314 306 300 295 289 281 276 274 272 268 265 258 235 205 195 192 186 183 186 189 190 193 201 205 204 207 214 222 232 239 241 249 260 271 283 290
357 1 360 360 360 356 354 355 358 0 1 359 352 340 323 312 310 297 280 279 261 239 245 266 269 287 334 40 198 212 211 210 210 207 203 202 202 206 237 278 289 291 290 293 302 312 322 326 324 320 313 308 306 300 290 279 271 266 261 252 240 224 205 195 191 189 184 179 177 176 177 183 194 195 196 203 213 230 249 260 277 291 299 300 300
340 341 341 341 343 345 343 340 338 341 347 353 352 344 332 325 321 306 289 290 285 260 253 257 253 252 250 238 240 242 223 213 211 208 202 200 207 224 247 260 263 264 265 269 276 285 298 313 320 321 320 319 315 307 297 283 264 250 243 234 224 215 207 197 189 186 184 178 172 170 167 166 170 170 171 193 235 276 297 307 312 312 312 310 312
329 329 331 329 326 326 324 319 320 322 327 336 341 340 338 334 326 315 304 302 304 293 278 269 261 259 252 238 236 239 234 227 225 219 212 214 228 242 253 255 253 253 253 253 256 262 275 293 307 314 317 319 314 304 291 273 249 232 224 220 216 211 206 201 192 183 179 173 167 163 157 152 152 155 166 257 312 324 326 327 328 327 326 324 323
324 324 325 323 317 315 313 310 310 309 311 317 322 322 325 327 325 321 311 301 298 297 291 280 267 258 250 236 229 230 229 229 231 230 223 216 218 230 252 267 267 258 250 246 248 255 263 274 289 302 310 313 307 293 272 244 228 219 213 212 213 208 204 205 203 191 177 166 159 157 156 155 158 186 315 330 335 334 333 335 335 333 330 326 323
324 324 326 325 316 310 308 305 302 300 301 304 304 302 303 304 309 316 317 304 294 290 287 281 269 256 248 240 235 234 236 237 235 232 230 224 225 243 262 275 279 268 256 252 254 255 256 262 272 284 294 296 287 267 240 220 214 213 208 207 207 200 197 200 198 182 166 160 159 162 169 177 208 313 336 344 350 358 358 352 344 337 331 327 326
327 329 332 331 324 317 312 306 300 298 297 296 294 289 285 286 291 299 309 310 304 294 286 279 271 261 254 253 250 244 240 239 236 235 240 244 251 264 273 277 281 281 272 265 261 257 256 257 258 259 264 262 248 228 210 199 198 200 197 195 193 185 180 181 172 158 154 158 163 167 168 157 127 92 82 82 81 77 65 26 350 336 331 330 331
331 330 330 329 327 325 321 315 309 305 303 300 294 283 277 279 284 286 289 296 303 303 297 286 272 263 258 258 255 245 233 226 226 229 235 240 246 256 265 271 279 288 291 283 269 260 254 249 246 243 236 223 210 202 195 187 184 184 179 175 171 162 154 155 155 152 156 160 155 147 138 125 117 113 109 103 97 88 54 351 340 337 337 338 339
322 322 322 321 321 320 317 315 311 309 310 309 302 290 281 279 281 280 280 281 284 290 298 298 284 268 258 253 247 238 227 220 219 220 223 226 230 238 245 254 268 280 284 283 274 262 252 244 237 226 211 196 188 187 186 182 180 175 167 160 156 150 146 153 159 157 156 151 139 130 125 120 116 111 106 98 81 37 356 347 347 346 346 345 343
313 314 314 313 312 309 307 306 304 304 308 308 304 298 292 286 282 279 278 278 276 275 279 283 284 280 268 252 239 230 225 222 221 220 220 223 227 233 239 248 260 268 271 273 272 266 257 246 232 217 196 180 179 186 187 184 180 172 163 158 158 158 160 166 166 156 146 140 136 130 123 117 107 95 84 59 29 9 359 356 354 351 349 346 342
310 309 307 305 302 299 298 297 296 297 301 301 298 296 293 290 287 284 280 276 273 271 269 268 270 274 275 270 256 237 224 220 219 218 218 221 224 228 234 241 249 254 259 266 272 272 267 252 236 221 203 190 194 198 193 184 176 170 166 169 170 166 162 159 156 152 145 140 136 128 116 102 84 68 56 37 21 11 4 360 356 352 348 343 340
307 306 304 301 297 295 294 292 292 294 294 293 291 290 289 288 287 287 283 274 267 265 264 261 260 262 265 268 270 262 243 227 222 219 215 215 218 223 228 232 238 243 249 255 261 265 264 252 236 225 218 215 213 201 185 174 172 173 173 171 163 160 158 152 148 149 147 141 132 118 102 89 74 60 47 35 24 13 5 359 354 350 347 344 342
305 304 302 300 299 298 295 293 293 294 292 288 286 285 284 284 283 282 281 274 265 259 257 257 258 259 259 261 264 261 248 236 232 226 218 213 212 216 222 228 232 236 241 245 248 248 246 242 235 227 223 220 210 190 176 172 174 173 169 163 158 155 152 147 148 151 146 132 120 111 102 89 73 61 49 36 25 13 4 356 349 346 347 347 345